KINEIS-4B

Last updated on Mon Jun 22 2026 00:03:00 GMT+0000 (Coordinated Universal Time)

1 63304U 25056E 26172.29253059 .00001068 00000+0 17636-3 0 9997 2 63304 97.9127 296.2803 0004112 286.3982 73.6773 14.72363361 67720
UTC large
Height (km)
Speed (km/s)
/
Latitude / Longitude
Inclination (degrees)
Orbital Period (minutes)
Azimuth
Elevation
Range (km)
Doppler Factor

Next 0 passes for location: London (51.5072 / 0.1276)

No passes found over London.
KINEIS-4B